This is the latest recevied weather packets stored in our database for station/object VK6HGR-1. If no packets are shown the sender has not sent any weather packets the latest 10 day(s).
| Time | Temp. | Humidity | Pressure | Rain* | Wind** | Luminosity | Snow |
|---|---|---|---|---|---|---|---|
| 1777688111 | 15.56° C | 55% | 1024 hPa | - | - | - | - |
| 1777687210 | 15° C | 56% | 1024.1 hPa | - | - | - | - |
| 1777686312 | 14.44° C | 58% | 1024.1 hPa | - | - | - | - |
| 1777685410 | 13.89° C | 60% | 1024.3 hPa | - | - | - | - |
| 1777684510 | 12.78° C | 62% | 1024.3 hPa | - | - | - | - |
| 1777683612 | 12.22° C | 64% | 1024.3 hPa | - | - | - | - |
| 1777682716 | 11.11° C | 66% | 1024.3 hPa | - | - | - | - |
| 1777681815 | 10.56° C | 68% | 1024.2 hPa | - | - | - | - |
| 1777680911 | 10° C | 69% | 1024.1 hPa | - | - | - | - |
| 1777680012 | 9.44° C | 70% | 1024 hPa | - | - | - | - |
| 1777679112 | 8.89° C | 70% | 1023.9 hPa | - | - | - | - |
| 1777678222 | 8.33° C | 71% | 1023.8 hPa | - | - | - | - |
| 1777677311 | 8.33° C | 71% | 1023.7 hPa | - | - | - | - |
| 1777676411 | 7.78° C | 71% | 1023.5 hPa | - | - | - | - |
| 1777675511 | 7.78° C | 71% | 1023.4 hPa | - | - | - | - |
| 1777674618 | 7.78° C | 71% | 1023.1 hPa | - | - | - | - |
| 1777673711 | 7.78° C | 71% | 1023 hPa | - | - | - | - |
| 1777672814 | 7.78° C | 71% | 1023 hPa | - | - | - | - |
| 1777671911 | 8.33° C | 71% | 1022.8 hPa | - | - | - | - |
| 1777671015 | 8.33° C | 70% | 1022.6 hPa | - | - | - | - |
| 1777670110 | 8.33° C | 70% | 1022.7 hPa | - | - | - | - |
| 1777669214 | 8.33° C | 70% | 1022.7 hPa | - | - | - | - |
| 1777668313 | 8.33° C | 70% | 1022.6 hPa | - | - | - | - |
| 1777667412 | 8.33° C | 70% | 1022.6 hPa | - | - | - | - |
| 1777666512 | 8.33° C | 70% | 1022.5 hPa | - | - | - | - |
* Rain since midnight (hover to see other rain measurements)
** Current wind speed in m/s (hover to see current wind gust speed)